Location: Marysville Observatory
(48.1092°N, 122.1645°W)
Time: 09:36:34
(UTC-08:00)

ISS - Visible Passes

Search period start: 03 December 2016 00:00
Search period end: 13 December 2016 00:00
Orbit: 401 x 410 km, 51.6° (Epoch: 03 December)

Date Brightness Start Highest point End Pass type
(mag) Time Alt. Az. Time Alt. Az. Time Alt. Az.
03 Dec -2.6 17:50:29 10° SW 17:53:37 41° SSE 17:54:29 33° ESE visible
03 Dec 0.1 19:26:50 10° W 19:27:10 12° W 19:27:10 12° W visible
04 Dec -1.8 16:59:02 10° SSW 17:01:50 26° SE 17:04:38 10° E visible
04 Dec -2.5 18:34:49 10° WSW 18:37:24 50° W 18:37:24 50° W visible
05 Dec -3.4 17:42:54 10° WSW 17:46:11 79° SSE 17:47:35 32° ENE visible
05 Dec -0.1 19:19:40 10° W 19:20:15 14° WNW 19:20:15 14° WNW visible
06 Dec -2.8 16:51:06 10° SW 16:54:18 50° SSE 16:57:31 10° ENE visible
06 Dec -2.5 18:27:36 10° W 18:30:24 46° NW 18:30:24 46° NW visible
07 Dec -3.2 17:35:32 10° W 17:38:49 65° NNW 17:40:30 26° ENE visible
07 Dec -0.3 19:12:27 10° WNW 19:13:10 15° WNW 19:13:10 15° WNW visible
08 Dec -2.5 18:20:22 10° WNW 18:23:16 42° NNW 18:23:16 42° NNW visible
09 Dec -2.8 17:28:15 10° W 17:31:28 48° N 17:33:20 21° ENE visible
09 Dec -0.5 19:05:04 10° WNW 19:06:01 17° WNW 19:06:01 17° WNW visible
10 Dec -2.7 18:13:02 10° WNW 18:16:06 44° N 18:16:06 44° N visible
11 Dec -2.7 17:20:56 10° WNW 17:24:07 43° N 17:26:13 18° ENE visible
11 Dec -0.9 18:57:35 10° WNW 18:58:53 22° WNW 18:58:53 22° WNW visible
12 Dec -3.2 18:05:34 10° WNW 18:08:50 54° NNE 18:09:02 53° NNE visible
